Find Starlink 30274

NORAD ID: 57672 Int'l Des: 2023-124 Owner: SPXS Country: US Constellation: starlink operational
LEOCIRCULAR

Live-Position

3D-Globus wird geladen...

Über Starlink 30274

Beschreibung wird geladen...

Nächste Überflüge

Passes for default location (London). Set your location on the main map for personalized predictions.

Höhenverlauf

Loading altitude history...

Zweizeiliger Elementsatz

1 57672U 23124K 26126.47423684 -.00001189 00000-0 -28031-4 0 9993
2 57672 53.1606 298.5474 0001203 77.5375 282.5760 15.30178667152416
Epoch: 6. Mai 2026 • Age: 12 hours

Aktueller Status

Höhe 475.8 km
Geschwindigkeit 7.63 km/s
Subsatellitenpunkt 4.40°N, 98.53°W
Startdatum 22. Aug. 2023
Alter 2.7 years
Typ internet

Technische Details

Klassifizierung Payload
Masse 730.00 kg
Trockenmasse 700.00 kg
Gesamtmasse 730.00 kg
Länge 0.30 m
Durchmesser 4.10 m
Spannweite 29.00 m
Form Box + pan
Hersteller SPXS
Bus-Typ Starlink V2M
Phasenstatus In Orbit
Besitzer/Staat SPXS/US

Most Searched